Location: Vancouver
(49.2500°N, 123.1330°W)
Time: 23:17:19
(UTC-07:00)

Transit 2A Rocket - Visible Passes

Search period start: 30 August 2014 00:00
Search period end: 09 September 2014 00:00
Orbit: 594 x 914 km, 66.7° (Epoch: 30 August)

Date Brightness Start Highest point End Pass type
(mag) Time Alt. Az. Time Alt. Az. Time Alt. Az.
04 Sep 7.3 05:32:16 10° SE 05:34:32 14° ESE 05:36:48 10° ENE visible
06 Sep 6.0 05:49:21 10° S 05:53:17 36° ESE 05:57:17 10° NE visible
07 Sep 6.8 05:08:34 10° SSE 05:11:50 21° ESE 05:15:08 10° ENE visible
08 Sep 7.2 04:28:42 10° SE 04:30:28 12° ESE 04:32:15 10° E visible
